Home   Weather   Dornbirn   Past weeks

Flag for Austria Past Weather in Dornbirn, Vorarlberg, Austria — Yesterday and Last 2 Weeks

Now
42 °F

Quite cool.


Feels Like: 42 °F
Forecast: 35 / 39 °F
Wind: 1 mph from West

Location: Bregenz

Current Time: Apr 26, 2017 at 6:25:47 am

Latest Report: Apr 26, 2017 at 5:00 am


Visibility: N/A

Pressure: 29.77 "Hg

Humidity: 95%

Dew Point: 40 °F

Location of DornbirnLocation

Past Weather in Dornbirn — Graph

°F

Dornbirn Temperature Yesterday

Maximum temperature yesterday: 58 °F (at 2:00 pm)
Minimum temperature yesterday: 45 °F (at 11:00 pm)
Average temperature yesterday: 53 °F

High & Low Weather Summary for the Past Weeks

 TemperatureHumidityPressure
High67 °F (Apr 12, 7:00 pm)97% (Apr 19, 3:00 am)30.58 "Hg (Apr 19, 3:00 am)
Low29 °F (Apr 20, 6:00 am)13% (Apr 21, 6:00 pm)29.74 "Hg (Apr 26, 1:00 am)
Average47 °F69%30.17 "Hg
* Reported Apr 11 5:00 am — Apr 26 5:00 am, Dornbirn, Weather by CustomWeather, © 2017

Note: Actual official high and low records may vary slightly from our data, if they occured in-between our weather recording intervals... More about our weather records

Advertising

Dornbirn Weather History for the Previous 24 Hours

Scroll right to see more
 ConditionsComfort  
Time TempWeatherWind HumidityBarometerVisibility
5:00 am
Wed, Apr 26
42 °FQuite cool.1 mph95%29.77 "HgN/A
4:00 am44 °FFog.2 mph96%29.76 "HgN/A
3:00 am44 °FQuite cool.2 mph96%29.76 "HgN/A
2:00 am44 °FQuite cool.1 mph95%29.76 "HgN/A
1:00 am44 °FQuite cool.3 mph93%29.74 "HgN/A
12:00 am44 °FQuite cool.2 mph95%29.76 "HgN/A
11:00 pm
Tue, Apr 25
45 °FCool.2 mph93%29.79 "HgN/A
10:00 pm46 °FFog.2 mph91%29.81 "HgN/A
9:00 pm47 °FFog.2 mph92%29.80 "HgN/A
8:00 pm48 °FCool.1 mph93%29.79 "HgN/A
7:00 pm49 °FFog.3 mph89%29.80 "HgN/A
6:00 pm50 °FFog.2 mph90%29.79 "HgN/A
5:00 pm51 °FCool.5 mph87%29.79 "HgN/A
4:00 pm54 °FFog.2 mph78%29.77 "HgN/A
3:00 pm57 °FFog.2 mph70%29.75 "HgN/A
2:00 pm58 °FOvercast.2 mph64%29.75 "Hg7 mi
1:00 pm57 °FSprinkles. Cloudy.3 mph67%29.78 "HgN/A
12:00 pm57 °FCool.1 mph64%29.78 "HgN/A
11:00 am57 °FOvercast.5 mph68%29.78 "Hg9 mi
10:00 am56 °FCool.3 mph71%29.78 "HgN/A
9:00 am54 °FCool.1 mph76%29.78 "HgN/A
8:00 am56 °FOvercast.1 mph63%29.77 "Hg9 mi
7:00 am52 °FOvercast.1 mph75%29.77 "Hg9 mi
6:00 am54 °FCool.2 mph68%29.77 "HgN/A
Weather by CustomWeather, © 2017

See weather overviewHow to use our weather pages